Kankakee, IL

4:52 AM CDT on May 25, 2017 (GMT -0500)
Greater Kankakee

Weather History for KIKK - August, 2013

Change the Weather History Date:

Thursday, August 22, 2013

  Actual Average Record
Temperature  
Mean Temperature 68 °F -  
Max Temperature 73 °F 82 °F 93 °F (1983)
Min Temperature 63 °F 59 °F 48 °F (2004)
Cooling Degree Days 3    
Growing Degree Days 18 (Base 50)    
Moisture  
Dew Point 67 °F    
Average Humidity 91    
Maximum Humidity 99    
Minimum Humidity 81    
Precipitation  
Precipitation 1.18 in - - ()
Sea Level Pressure  
Sea Level Pressure 30.09 in    
Wind  
Wind Speed 4 mph (West)    
Max Wind Speed 13 mph    
Max Gust Speed 18 mph    
Visibility 8 miles    
Events Fog , Rain , Thunderstorm    
Averages and records for this station are not official NWS values.
T = Trace of Precipitation, MM = Missing Value Source: NWS Daily Summary

Daily Weather History Graph

Daily Weather History Graph

Search for Another Location

Airport or City:

Trip Planner

Search our weather history database for the weather conditions in past years. The results will help you decide how hot, cold, wet, or windy it might be!

Date:

Astronomy

Aug. 22, 2013 Rise Set
Actual Time 6:08 AM CDT 7:39 PM CDT
Civil Twilight 5:39 AM CDT 8:08 PM CDT
Nautical Twilight 5:04 AM CDT 8:43 PM CDT
Astronomical Twilight 4:27 AM CDT 9:19 PM CDT
Moon 8:21 PM CDT (8/22) 7:58 AM CDT (8/22)
Length of Visible Light 14h 28m
Length of Day
13h 31m
Waning Gibbous, 96% of the Moon is Illuminated
Aug 22
Waning Gibbous
Aug 28
Last Quarter
Sep 5
New
Sep 12
First Quarter
Sep 19
Full

Hourly Weather History & Observations

Time (CDT) Temp. Dew Point Humidity Pressure Visibility Wind Dir Wind Speed Gust Speed Precip Events Conditions
12:15 AM 72.5 °F 67.1 °F 83% 30.06 in 10.0 mi SW 5.8 mph - N/A   Overcast
12:35 AM 73.4 °F 67.1 °F 81% 30.06 in 10.0 mi SW 4.6 mph - N/A   Overcast
12:55 AM 73.0 °F 67.3 °F 82% 30.07 in 10.0 mi Calm Calm - N/A Thunderstorm Overcast
1:15 AM 73.4 °F 67.3 °F 81% 30.07 in 10.0 mi SSE 3.5 mph - N/A Thunderstorm Overcast
1:35 AM 72.9 °F 67.3 °F 83% 30.07 in 10.0 mi Calm Calm - N/A   Overcast
1:55 AM 72.3 °F 68.0 °F 86% 30.07 in 10.0 mi Calm Calm - N/A   Overcast
2:15 AM 71.8 °F 68.0 °F 88% 30.06 in 10.0 mi Calm Calm - N/A   Overcast
2:35 AM 71.6 °F 67.5 °F 87% 30.05 in 10.0 mi SSE 4.6 mph - N/A   Overcast
2:55 AM 71.6 °F 67.6 °F 87% 30.06 in 10.0 mi South 3.5 mph - N/A   Scattered Clouds
3:15 AM 71.4 °F 67.6 °F 88% 30.06 in 10.0 mi South 3.5 mph - N/A   Light Drizzle
3:35 AM 71.6 °F 68.0 °F 88% 30.07 in 10.0 mi South 3.5 mph - N/A Thunderstorm Mostly Cloudy
3:55 AM 70.7 °F 68.0 °F 91% 30.07 in 10.0 mi ENE 5.8 mph - N/A   Overcast
4:15 AM 71.6 °F 68.0 °F 88% 30.07 in 10.0 mi East 5.8 mph - N/A Thunderstorm Thunderstorm
4:35 AM 71.6 °F 68.2 °F 89% 30.09 in 10.0 mi NNW 3.5 mph - N/A Thunderstorm Unknown
4:55 AM 71.6 °F 68.2 °F 89% 30.09 in 10.0 mi Calm Calm - N/A Rain , Thunderstorm Light Thunderstorms and Rain
5:15 AM 71.1 °F 68.7 °F 92% 30.09 in 10.0 mi NE 4.6 mph - N/A Thunderstorm Overcast
5:35 AM 71.1 °F 68.9 °F 93% 30.08 in 10.0 mi Calm Calm - N/A Thunderstorm Overcast
5:55 AM 70.7 °F 68.9 °F 94% 30.08 in 7.0 mi Calm Calm - N/A Rain Light Rain
6:15 AM 70.2 °F 68.9 °F 96% 30.07 in 7.0 mi Calm Calm - N/A Rain Light Rain
6:35 AM 70.3 °F 68.9 °F 95% 30.07 in 4.0 mi SSW 3.5 mph - N/A Rain Light Rain
6:55 AM 70.0 °F 68.9 °F 96% 30.08 in 4.0 mi NNW 3.5 mph - N/A Thunderstorm Unknown
7:15 AM 70.9 °F 69.1 °F 94% 30.09 in 4.0 mi NW 3.5 mph - 0.01 in Rain , Thunderstorm Light Thunderstorms and Rain
7:35 AM 70.5 °F 67.6 °F 91% 30.09 in 7.0 mi NW 9.2 mph 18.4 mph 0.02 in Rain , Thunderstorm Light Thunderstorms and Rain
7:55 AM 69.4 °F 66.7 °F 91% 30.10 in 1.2 mi West 11.5 mph - 0.51 in Rain , Thunderstorm Heavy Thunderstorms and Rain
8:15 AM 69.8 °F 67.6 °F 93% 30.10 in 7.0 mi West 10.4 mph - 0.03 in Rain , Thunderstorm Light Thunderstorms and Rain
8:35 AM 68.9 °F 67.5 °F 95% 30.12 in 7.0 mi West 10.4 mph - 0.06 in Rain , Thunderstorm Thunderstorms and Rain
8:55 AM 69.1 °F 67.3 °F 94% 30.12 in 7.0 mi West 11.5 mph 16.1 mph 0.10 in Rain , Thunderstorm Rain
9:15 AM 68.9 °F 67.1 °F 94% 30.11 in 7.0 mi West 6.9 mph - 0.02 in Rain Light Rain
9:35 AM 68.9 °F 67.6 °F 96% 30.12 in 5.0 mi West 5.8 mph - 0.06 in Rain Rain
9:55 AM 68.9 °F 67.5 °F 95% 30.12 in 7.0 mi WSW 6.9 mph - 0.10 in Rain , Thunderstorm Rain
10:15 AM 68.4 °F 67.1 °F 96% 30.11 in 7.0 mi SW 10.4 mph - 0.03 in Rain , Thunderstorm Rain
10:35 AM 68.9 °F 67.1 °F 94% 30.09 in 10.0 mi South 9.2 mph - 0.05 in Rain Light Rain
10:55 AM 69.3 °F 66.4 °F 91% 30.09 in 10.0 mi WSW 10.4 mph - 0.05 in Rain , Thunderstorm Light Thunderstorms and Rain
11:15 AM 68.4 °F 66.6 °F 94% 30.12 in 10.0 mi West 9.2 mph - 0.03 in Rain , Thunderstorm Rain
11:35 AM 68.5 °F 66.7 °F 94% 30.14 in 10.0 mi West 12.7 mph 18.4 mph 0.06 in Rain , Thunderstorm Thunderstorms and Rain
11:55 AM 68.2 °F 66.6 °F 95% 30.16 in 7.0 mi WNW 5.8 mph - 0.12 in Rain Rain
12:15 PM 68.0 °F 66.4 °F 95% 30.15 in 7.0 mi NW 5.8 mph - 0.06 in Rain , Thunderstorm Thunderstorms and Rain
12:35 PM 67.5 °F 66.4 °F 96% 30.14 in 5.0 mi North 6.9 mph - 0.12 in Rain Rain
12:55 PM 68.0 °F 66.7 °F 96% 30.12 in 7.0 mi NNW 6.9 mph - 0.19 in Rain Rain
1:15 PM 68.9 °F 67.5 °F 95% 30.13 in 10.0 mi NNW 8.1 mph - 0.01 in Rain Light Rain
1:35 PM 69.8 °F 67.6 °F 93% 30.13 in 10.0 mi NNW 6.9 mph - 0.01 in   Overcast
1:55 PM 69.8 °F 67.1 °F 91% 30.14 in 10.0 mi NW 5.8 mph - 0.01 in Rain Rain
2:15 PM 69.3 °F 67.1 °F 93% 30.14 in 10.0 mi WNW 4.6 mph - 0.01 in Rain Rain
2:35 PM 68.9 °F 67.3 °F 95% 30.14 in 5.0 mi Calm Calm - 0.07 in Rain Rain
2:55 PM 68.9 °F 68.0 °F 97% 30.10 in 10.0 mi East 9.2 mph - 0.10 in Rain Light Rain
3:15 PM 70.3 °F 68.9 °F 95% 30.10 in 10.0 mi South 4.6 mph - N/A Rain Light Rain
3:35 PM 70.9 °F 68.4 °F 92% 30.07 in 10.0 mi SE 8.1 mph - N/A   Scattered Clouds
3:55 PM 71.4 °F 68.0 °F 89% 30.06 in 10.0 mi SE 8.1 mph - N/A   Mostly Cloudy
4:15 PM 72.3 °F 68.0 °F 86% 30.04 in 10.0 mi SE 9.2 mph - N/A   Scattered Clouds
4:35 PM 73.0 °F 68.0 °F 84% 30.03 in 10.0 mi SSE 6.9 mph - N/A   Clear
4:55 PM 73.0 °F 68.2 °F 85% 30.04 in 10.0 mi SSE 5.8 mph - N/A   Clear
5:15 PM 73.8 °F 68.4 °F 83% 30.04 in 10.0 mi SE 3.5 mph - N/A   Clear
5:35 PM 73.4 °F 67.8 °F 83% 30.04 in 10.0 mi Calm Calm - N/A   Clear
5:55 PM 73.2 °F 67.8 °F 83% 30.03 in 10.0 mi ESE 4.6 mph - N/A   Scattered Clouds
6:15 PM 72.9 °F 68.2 °F 85% 30.04 in 10.0 mi Calm Calm - N/A   Mostly Cloudy
6:35 PM 72.9 °F 68.7 °F 87% 30.05 in 10.0 mi Calm Calm - N/A   Overcast
6:55 PM 72.0 °F 68.4 °F 88% 30.08 in 10.0 mi WNW 3.5 mph - N/A   Overcast
7:15 PM 71.6 °F 68.4 °F 89% 30.08 in 10.0 mi Calm Calm - N/A   Overcast
7:35 PM 71.8 °F 68.2 °F 88% 30.10 in 10.0 mi NW 6.9 mph - N/A   Overcast
7:55 PM 71.4 °F 68.0 °F 89% 30.10 in 10.0 mi NNW 5.8 mph - N/A   Overcast
8:15 PM 70.7 °F 68.0 °F 91% 30.10 in 10.0 mi North 4.6 mph - N/A   Scattered Clouds
8:35 PM 69.8 °F 68.0 °F 94% 30.11 in 10.0 mi NNE 4.6 mph - N/A   Clear
8:55 PM 69.3 °F 67.6 °F 95% 30.11 in 10.0 mi Calm Calm - N/A   Clear
9:15 PM 68.5 °F 67.3 °F 96% 30.12 in 10.0 mi Calm Calm - N/A   Clear
9:35 PM 67.8 °F 66.9 °F 97% 30.12 in 10.0 mi Calm Calm - N/A   Clear
9:55 PM 66.7 °F 66.4 °F 99% 30.12 in 5.0 mi Calm Calm - N/A   Clear
10:15 PM 66.2 °F 65.8 °F 99% 30.12 in 3.0 mi Calm Calm - N/A   Clear
10:35 PM 66.2 °F 66.0 °F 99% 30.12 in 0.2 mi Calm Calm - N/A Fog Fog
10:55 PM 64.2 °F 64.0 °F 99% 30.12 in 0.2 mi Calm Calm - N/A Fog Fog
11:15 PM 63.3 °F 63.0 °F 99% 30.12 in 0.2 mi Calm Calm - N/A Fog Fog
11:35 PM 63.3 °F 63.1 °F 99% 30.12 in 0.2 mi Calm Calm - N/A Fog Fog
11:55 PM 63.5 °F 63.3 °F 99% 30.12 in 0.2 mi Calm Calm - N/A Fog Fog